owner,sensor,date,latitude,longitude,vertical_datum,sea_water_temperature,qcFlag
BP,ioos:station:wmo:42369:3,2021-01-01T00:00:00Z,27.2132,-90.2801,451.2,66.3,11144222
BP,ioos:station:wmo:42369:3,2021-01-01T00:20:00Z,27.2132,-90.2797,451.9,66.2,11144222
BP,ioos:station:wmo:42369:3,2021-01-01T00:40:00Z,27.2130,-90.2795,451.6,66.3,11144222
BP,ioos:station:wmo:42369:3,2021-01-01T01:00:00Z,27.2129,-90.2792,452.2,66.3,11144222
BP,ioos:station:wmo:42369:3,2021-01-01T01:20:00Z,27.2129,-90.2790,451.6,66.3,11144222
BP,ioos:station:wmo:42369:3,2021-01-01T01:40:00Z,27.2128,-90.2787,452.3,66.3,11144222
BP,ioos:station:wmo:42369:3,2021-01-01T02:00:00Z,27.2127,-90.2785,452.5,66.3,11144222
BP,ioos:station:wmo:42369:3,2021-01-01T02:20:00Z,27.2125,-90.2783,452.0,66.3,11144222
BP,ioos:station:wmo:42369:3,2021-01-01T02:40:00Z,27.2124,-90.2782,451.3,66.3,11144222
BP,ioos:station:wmo:42369:3,2021-01-01T03:00:00Z,27.2123,-90.2779,450.8,66.3,11144222
BP,ioos:station:wmo:42369:3,2021-01-01T03:20:00Z,27.2123,-90.2779,450.8,66.3,11144222
BP,ioos:station:wmo:42369:3,2021-01-01T03:40:00Z,27.2123,-90.2779,450.2,66.3,11144222
BP,ioos:station:wmo:42369:3,2021-01-01T04:00:00Z,27.2123,-90.2779,451.3,66.3,11144222
BP,ioos:station:wmo:42369:3,2021-01-01T04:20:00Z,27.2122,-90.2780,450.2,66.3,11144222
BP,ioos:station:wmo:42369:3,2021-01-01T04:40:00Z,27.2121,-90.2779,450.0,66.3,11144222
BP,ioos:station:wmo:42369:3,2021-01-01T05:00:00Z,27.2120,-90.2778,450.3,66.3,11144222
BP,ioos:station:wmo:42369:3,2021-01-01T05:20:00Z,27.2114,-90.2771,450.2,66.3,11144222
BP,ioos:station:wmo:42369:3,2021-01-01T05:40:00Z,27.2091,-90.2750,450.3,66.3,11144222
BP,ioos:station:wmo:42369:3,2021-01-01T06:00:00Z,27.2077,-90.2743,450.7,66.3,11144222
BP,ioos:station:wmo:42369:3,2021-01-01T06:20:00Z,27.2061,-90.2739,450.6,66.3,11144222
BP,ioos:station:wmo:42369:3,2021-01-01T06:40:00Z,27.2047,-90.2740,452.1,66.3,11144222
BP,ioos:station:wmo:42369:3,2021-01-01T07:00:00Z,27.2037,-90.2744,450.5,66.3,11144222
BP,ioos:station:wmo:42369:3,2021-01-01T07:20:00Z,27.2027,-90.2749,451.0,66.4,11144222
BP,ioos:station:wmo:42369:3,2021-01-01T07:40:00Z,27.2022,-90.2752,451.4,66.4,11144222
BP,ioos:station:wmo:42369:3,2021-01-01T08:00:00Z,27.2016,-90.2756,450.8,66.3,11144222
BP,ioos:station:wmo:42369:3,2021-01-01T08:20:00Z,27.2011,-90.2761,450.8,66.3,11144222
BP,ioos:station:wmo:42369:3,2021-01-01T08:40:00Z,27.2006,-90.2765,450.7,66.3,11144222
BP,ioos:station:wmo:42369:3,2021-01-01T09:00:00Z,27.2003,-90.2771,450.5,66.3,11144222
BP,ioos:station:wmo:42369:3,2021-01-01T09:20:00Z,27.2001,-90.2777,450.7,66.3,11144222
BP,ioos:station:wmo:42369:3,2021-01-01T09:40:00Z,27.1997,-90.2782,450.1,66.3,11144222
BP,ioos:station:wmo:42369:3,2021-01-01T10:00:00Z,27.1995,-90.2787,449.3,66.3,11144222
BP,ioos:station:wmo:42369:3,2021-01-01T10:20:00Z,27.1993,-90.2792,449.3,66.4,11144222
BP,ioos:station:wmo:42369:3,2021-01-01T10:40:00Z,27.1992,-90.2796,450.1,66.3,11144222
BP,ioos:station:wmo:42369:3,2021-01-01T11:00:00Z,27.1992,-90.2798,449.6,66.3,11144222
BP,ioos:station:wmo:42369:3,2021-01-01T11:20:00Z,27.1991,-90.2802,449.3,66.3,11144222
BP,ioos:station:wmo:42369:3,2021-01-01T11:40:00Z,27.1991,-90.2806,449.4,66.3,11144222
BP,ioos:station:wmo:42369:3,2021-01-01T12:00:00Z,27.1991,-90.2810,448.9,66.3,11144222
BP,ioos:station:wmo:42369:3,2021-01-01T12:20:00Z,27.1990,-90.2813,450.3,66.3,11144222
BP,ioos:station:wmo:42369:3,2021-01-01T12:40:00Z,27.1990,-90.2818,449.0,66.3,11144222
BP,ioos:station:wmo:42369:3,2021-01-01T13:00:00Z,27.1990,-90.2823,448.7,66.3,11144222
BP,ioos:station:wmo:42369:3,2021-01-01T13:20:00Z,27.1992,-90.2827,449.1,66.3,11144222
BP,ioos:station:wmo:42369:3,2021-01-01T13:40:00Z,27.1992,-90.2832,449.0,66.3,11144222
BP,ioos:station:wmo:42369:3,2021-01-01T14:00:00Z,27.1993,-90.2837,449.6,66.3,11144222
BP,ioos:station:wmo:42369:3,2021-01-01T14:20:00Z,27.1993,-90.2840,449.4,66.3,11144222
BP,ioos:station:wmo:42369:3,2021-01-01T14:40:00Z,27.1995,-90.2843,449.1,66.3,11144222
BP,ioos:station:wmo:42369:3,2021-01-01T15:00:00Z,27.1995,-90.2844,448.2,66.3,11144222
BP,ioos:station:wmo:42369:3,2021-01-01T15:20:00Z,27.1996,-90.2846,449.2,66.3,11144222
BP,ioos:station:wmo:42369:3,2021-01-01T15:40:00Z,27.1997,-90.2850,449.1,66.3,11144222
BP,ioos:station:wmo:42369:3,2021-01-01T16:00:00Z,27.1998,-90.2854,449.3,66.3,11144222
BP,ioos:station:wmo:42369:3,2021-01-01T16:20:00Z,27.2000,-90.2858,449.1,66.3,11144222
BP,ioos:station:wmo:42369:3,2021-01-01T16:40:00Z,27.2000,-90.2859,449.2,66.3,11144222
BP,ioos:station:wmo:42369:3,2021-01-01T17:00:00Z,27.2000,-90.2859,449.2,66.3,11144222
BP,ioos:station:wmo:42369:3,2021-01-01T17:20:00Z,27.2000,-90.2858,448.5,66.3,11144222
BP,ioos:station:wmo:42369:3,2021-01-01T17:40:00Z,27.1998,-90.2856,448.5,66.3,11144222
BP,ioos:station:wmo:42369:3,2021-01-01T18:00:00Z,27.1997,-90.2856,449.0,66.3,11144222
BP,ioos:station:wmo:42369:3,2021-01-01T18:20:00Z,27.1998,-90.2856,449.2,66.3,11144222
BP,ioos:station:wmo:42369:3,2021-01-01T18:40:00Z,27.1999,-90.2856,448.4,66.3,11144222
BP,ioos:station:wmo:42369:3,2021-01-01T19:00:00Z,27.2000,-90.2857,449.1,66.3,11144222
BP,ioos:station:wmo:42369:3,2021-01-01T19:20:00Z,27.2002,-90.2858,448.3,66.3,11144222
BP,ioos:station:wmo:42369:3,2021-01-01T19:40:00Z,27.2004,-90.2859,448.9,66.3,11144222
BP,ioos:station:wmo:42369:3,2021-01-01T20:00:00Z,27.2006,-90.2860,448.8,66.3,11144222
BP,ioos:station:wmo:42369:3,2021-01-01T20:20:00Z,27.2007,-90.2860,448.6,66.3,11144222
BP,ioos:station:wmo:42369:3,2021-01-01T20:40:00Z,27.2007,-90.2862,448.5,66.3,11144222
BP,ioos:station:wmo:42369:3,2021-01-01T21:00:00Z,27.2009,-90.2863,448.6,66.3,11144222
BP,ioos:station:wmo:42369:3,2021-01-01T21:20:00Z,27.2010,-90.2863,448.9,66.3,11144222
BP,ioos:station:wmo:42369:3,2021-01-01T21:40:00Z,27.2012,-90.2863,448.9,66.3,11144222
BP,ioos:station:wmo:42369:3,2021-01-01T22:00:00Z,27.2013,-90.2862,448.8,66.3,11144222
BP,ioos:station:wmo:42369:3,2021-01-01T22:20:00Z,27.2013,-90.2862,448.3,66.4,11144222
BP,ioos:station:wmo:42369:3,2021-01-01T22:40:00Z,27.2013,-90.2861,448.7,66.3,11144222
BP,ioos:station:wmo:42369:3,2021-01-01T23:00:00Z,27.2013,-90.2860,448.5,66.3,11144222
BP,ioos:station:wmo:42369:3,2021-01-01T23:20:00Z,27.2011,-90.2858,449.6,66.3,11144222
BP,ioos:station:wmo:42369:3,2021-01-01T23:40:00Z,27.2009,-90.2857,449.0,66.3,11144222
BP,ioos:station:wmo:42369:3,2021-01-02T00:00:00Z,27.2008,-90.2856,448.9,66.3,11144222
BP,ioos:station:wmo:42369:3,2021-01-02T00:20:00Z,27.2007,-90.2853,448.0,66.3,11144222
BP,ioos:station:wmo:42369:3,2021-01-02T00:40:00Z,27.2005,-90.2851,449.0,66.3,11144222
BP,ioos:station:wmo:42369:3,2021-01-02T01:00:00Z,27.2004,-90.2849,448.3,66.3,11144222
BP,ioos:station:wmo:42369:3,2021-01-02T01:20:00Z,27.2003,-90.2847,448.7,66.3,11144222
BP,ioos:station:wmo:42369:3,2021-01-02T01:40:00Z,27.2002,-90.2844,448.0,66.3,11144222
BP,ioos:station:wmo:42369:3,2021-01-02T02:00:00Z,27.2000,-90.2841,449.1,66.3,11144222
BP,ioos:station:wmo:42369:3,2021-01-02T02:20:00Z,27.1998,-90.2837,448.3,66.3,11144222
BP,ioos:station:wmo:42369:3,2021-01-02T02:40:00Z,27.1996,-90.2834,449.0,66.3,11144222
BP,ioos:station:wmo:42369:3,2021-01-02T03:00:00Z,27.1995,-90.2832,449.7,66.3,11144222
BP,ioos:station:wmo:42369:3,2021-01-02T03:20:00Z,27.1995,-90.2830,448.5,66.3,11144222
BP,ioos:station:wmo:42369:3,2021-01-02T03:40:00Z,27.1995,-90.2828,448.7,66.3,11144222
BP,ioos:station:wmo:42369:3,2021-01-02T04:00:00Z,27.1994,-90.2827,447.6,66.4,11144222
BP,ioos:station:wmo:42369:3,2021-01-02T04:20:00Z,27.1994,-90.2826,449.1,66.3,11144222
BP,ioos:station:wmo:42369:3,2021-01-02T04:40:00Z,27.1994,-90.2825,448.4,66.3,11144222
BP,ioos:station:wmo:42369:3,2021-01-02T05:00:00Z,27.1994,-90.2826,448.8,66.3,11144222
BP,ioos:station:wmo:42369:3,2021-01-02T05:20:00Z,27.1993,-90.2827,448.3,66.3,11144222
BP,ioos:station:wmo:42369:3,2021-01-02T05:40:00Z,27.1992,-90.2827,448.8,66.3,11144222
BP,ioos:station:wmo:42369:3,2021-01-02T06:00:00Z,27.1992,-90.2827,447.5,66.4,11144222
BP,ioos:station:wmo:42369:3,2021-01-02T06:20:00Z,27.1991,-90.2826,448.2,66.4,11144222
BP,ioos:station:wmo:42369:3,2021-01-02T06:40:00Z,27.1990,-90.2826,449.8,66.4,11144222
BP,ioos:station:wmo:42369:3,2021-01-02T07:00:00Z,27.1990,-90.2826,448.4,66.4,11144222
BP,ioos:station:wmo:42369:3,2021-01-02T07:20:00Z,27.1990,-90.2826,449.3,66.4,11144222
BP,ioos:station:wmo:42369:3,2021-01-02T07:40:00Z,27.1990,-90.2826,449.2,66.3,11144222
BP,ioos:station:wmo:42369:3,2021-01-02T08:00:00Z,27.1989,-90.2826,447.8,66.3,11144222
BP,ioos:station:wmo:42369:3,2021-01-02T08:20:00Z,27.1988,-90.2826,448.2,66.4,11144222
BP,ioos:station:wmo:42369:3,2021-01-02T08:40:00Z,27.1988,-90.2827,449.4,66.4,11144222
BP,ioos:station:wmo:42369:3,2021-01-02T09:00:00Z,27.1987,-90.2827,449.2,66.4,11144222
BP,ioos:station:wmo:42369:3,2021-01-02T09:20:00Z,27.1987,-90.2828,448.6,66.4,11144222
BP,ioos:station:wmo:42369:3,2021-01-02T09:40:00Z,27.1987,-90.2830,448.8,66.3,11144222
BP,ioos:station:wmo:42369:3,2021-01-02T10:00:00Z,27.1987,-90.2831,448.8,66.4,11144222
BP,ioos:station:wmo:42369:3,2021-01-02T10:20:00Z,27.1987,-90.2830,449.2,66.4,11144222
BP,ioos:station:wmo:42369:3,2021-01-02T10:40:00Z,27.1987,-90.2831,449.7,66.3,11144222
BP,ioos:station:wmo:42369:3,2021-01-02T11:00:00Z,27.1987,-90.2832,448.0,66.4,11144222
BP,ioos:station:wmo:42369:3,2021-01-02T11:20:00Z,27.1987,-90.2833,448.1,66.4,11144222
BP,ioos:station:wmo:42369:3,2021-01-02T11:40:00Z,27.1987,-90.2833,449.4,66.3,11144222
BP,ioos:station:wmo:42369:3,2021-01-02T12:00:00Z,27.1987,-90.2834,449.1,66.4,11144222
BP,ioos:station:wmo:42369:3,2021-01-02T12:20:00Z,27.1987,-90.2837,448.6,66.4,11144222
BP,ioos:station:wmo:42369:3,2021-01-02T12:40:00Z,27.1988,-90.2839,448.9,66.4,11144222
BP,ioos:station:wmo:42369:3,2021-01-02T13:00:00Z,27.1988,-90.2840,449.9,66.3,11144222
BP,ioos:station:wmo:42369:3,2021-01-02T13:20:00Z,27.1988,-90.2840,448.5,66.4,11144222
BP,ioos:station:wmo:42369:3,2021-01-02T13:40:00Z,27.1988,-90.2841,449.4,66.3,11144222
BP,ioos:station:wmo:42369:3,2021-01-02T14:00:00Z,27.1987,-90.2840,448.4,66.3,11144222
BP,ioos:station:wmo:42369:3,2021-01-02T14:20:00Z,27.1987,-90.2839,449.7,66.3,11144222
BP,ioos:station:wmo:42369:3,2021-01-02T14:40:00Z,27.1987,-90.2838,448.3,66.3,11144222
BP,ioos:station:wmo:42369:3,2021-01-02T15:00:00Z,27.1987,-90.2836,450.3,66.4,11144222
BP,ioos:station:wmo:42369:3,2021-01-02T15:20:00Z,27.1986,-90.2834,450.3,66.4,11144222
BP,ioos:station:wmo:42369:3,2021-01-02T15:40:00Z,27.1986,-90.2833,450.6,66.4,11144222
BP,ioos:station:wmo:42369:3,2021-01-02T16:00:00Z,27.1986,-90.2831,449.8,66.4,11144222
BP,ioos:station:wmo:42369:3,2021-01-02T16:20:00Z,27.1986,-90.2829,450.3,66.4,11144222
BP,ioos:station:wmo:42369:3,2021-01-02T16:40:00Z,27.1986,-90.2829,450.0,66.4,11144222
BP,ioos:station:wmo:42369:3,2021-01-02T17:00:00Z,27.1987,-90.2830,450.7,66.4,11144222
BP,ioos:station:wmo:42369:3,2021-01-02T17:20:00Z,27.1987,-90.2831,449.1,66.4,11144222
BP,ioos:station:wmo:42369:3,2021-01-02T17:40:00Z,27.1987,-90.2832,449.5,66.4,11144222
BP,ioos:station:wmo:42369:3,2021-01-02T18:00:00Z,27.1987,-90.2831,449.3,66.3,11144222
BP,ioos:station:wmo:42369:3,2021-01-02T18:20:00Z,27.1988,-90.2832,450.4,66.4,11144222
BP,ioos:station:wmo:42369:3,2021-01-02T18:40:00Z,27.1987,-90.2831,450.4,66.4,11144222
BP,ioos:station:wmo:42369:3,2021-01-02T19:00:00Z,27.1986,-90.2828,450.3,66.3,11144222
BP,ioos:station:wmo:42369:3,2021-01-02T19:20:00Z,27.1986,-90.2825,450.0,66.3,11144222
BP,ioos:station:wmo:42369:3,2021-01-02T19:40:00Z,27.1986,-90.2822,450.7,66.4,11144222
BP,ioos:station:wmo:42369:3,2021-01-02T20:00:00Z,27.1987,-90.2820,450.1,66.4,11144222
BP,ioos:station:wmo:42369:3,2021-01-02T20:20:00Z,27.1988,-90.2818,449.0,66.4,11144222
BP,ioos:station:wmo:42369:3,2021-01-02T20:40:00Z,27.1988,-90.2818,449.2,66.3,11144222
BP,ioos:station:wmo:42369:3,2021-01-02T21:00:00Z,27.1989,-90.2816,449.4,66.3,11144222
BP,ioos:station:wmo:42369:3,2021-01-02T21:20:00Z,27.1990,-90.2814,449.6,66.3,11144222
BP,ioos:station:wmo:42369:3,2021-01-02T21:40:00Z,27.1991,-90.2811,449.6,66.3,11144222
BP,ioos:station:wmo:42369:3,2021-01-02T22:00:00Z,27.1991,-90.2809,449.5,66.3,11144222
BP,ioos:station:wmo:42369:3,2021-01-02T22:20:00Z,27.1991,-90.2806,448.9,66.4,11144222
BP,ioos:station:wmo:42369:3,2021-01-02T22:40:00Z,27.1992,-90.2805,450.4,66.3,11144222
BP,ioos:station:wmo:42369:3,2021-01-02T23:00:00Z,27.1993,-90.2803,448.8,66.4,11144222
BP,ioos:station:wmo:42369:3,2021-01-02T23:20:00Z,27.1993,-90.2801,449.7,66.4,11144222
BP,ioos:station:wmo:42369:3,2021-01-02T23:40:00Z,27.1994,-90.2798,449.6,66.4,11144222
BP,ioos:station:wmo:42369:3,2021-01-03T00:00:00Z,27.1995,-90.2795,449.2,66.3,11144222
BP,ioos:station:wmo:42369:3,2021-01-03T00:20:00Z,27.1996,-90.2793,449.5,66.3,11144222
BP,ioos:station:wmo:42369:3,2021-01-03T00:40:00Z,27.1997,-90.2791,449.9,66.3,11144222
BP,ioos:station:wmo:42369:3,2021-01-03T01:00:00Z,27.1997,-90.2789,449.5,66.4,11144222
BP,ioos:station:wmo:42369:3,2021-01-03T01:20:00Z,27.1998,-90.2788,449.0,66.3,11144222
BP,ioos:station:wmo:42369:3,2021-01-03T01:40:00Z,27.1999,-90.2788,450.2,66.3,11144222
BP,ioos:station:wmo:42369:3,2021-01-03T02:00:00Z,27.1999,-90.2788,449.8,66.4,11144222
BP,ioos:station:wmo:42369:3,2021-01-03T02:20:00Z,27.1999,-90.2789,449.9,66.4,11144222
BP,ioos:station:wmo:42369:3,2021-01-03T02:40:00Z,27.1999,-90.2787,449.5,66.4,11144222
BP,ioos:station:wmo:42369:3,2021-01-03T03:00:00Z,27.1998,-90.2787,449.2,66.4,11144222
BP,ioos:station:wmo:42369:3,2021-01-03T03:20:00Z,27.1998,-90.2787,449.3,66.4,11144222
BP,ioos:station:wmo:42369:3,2021-01-03T03:40:00Z,27.1997,-90.2787,449.2,66.4,11144222
BP,ioos:station:wmo:42369:3,2021-01-03T04:00:00Z,27.1997,-90.2788,450.1,66.4,11144222
BP,ioos:station:wmo:42369:3,2021-01-03T04:20:00Z,27.1996,-90.2789,450.3,66.4,11144222
BP,ioos:station:wmo:42369:3,2021-01-03T04:40:00Z,27.1996,-90.2789,449.0,66.4,11144222
BP,ioos:station:wmo:42369:3,2021-01-03T05:00:00Z,27.1996,-90.2790,450.4,66.4,11144222
BP,ioos:station:wmo:42369:3,2021-01-03T05:20:00Z,27.1995,-90.2791,449.3,66.4,11144222
BP,ioos:station:wmo:42369:3,2021-01-03T05:40:00Z,27.1995,-90.2793,448.8,66.4,11144222
BP,ioos:station:wmo:42369:3,2021-01-03T06:00:00Z,27.1994,-90.2795,449.3,66.4,11144222
BP,ioos:station:wmo:42369:3,2021-01-03T06:20:00Z,27.1993,-90.2796,450.5,66.4,11144222
BP,ioos:station:wmo:42369:3,2021-01-03T06:40:00Z,27.1993,-90.2796,449.7,66.3,11144222
BP,ioos:station:wmo:42369:3,2021-01-03T07:00:00Z,27.1992,-90.2797,449.1,66.4,11144222
BP,ioos:station:wmo:42369:3,2021-01-03T07:20:00Z,27.1992,-90.2798,448.9,66.4,11144222
BP,ioos:station:wmo:42369:3,2021-01-03T07:40:00Z,27.1992,-90.2800,449.1,66.4,11144222
BP,ioos:station:wmo:42369:3,2021-01-03T08:00:00Z,27.1991,-90.2802,449.9,66.4,11144222
BP,ioos:station:wmo:42369:3,2021-01-03T08:20:00Z,27.1991,-90.2803,449.3,66.4,11144222
BP,ioos:station:wmo:42369:3,2021-01-03T08:40:00Z,27.1991,-90.2803,449.3,66.4,11144222
BP,ioos:station:wmo:42369:3,2021-01-03T09:00:00Z,27.1991,-90.2803,449.6,66.4,11144222
BP,ioos:station:wmo:42369:3,2021-01-03T09:20:00Z,27.1991,-90.2805,450.0,66.4,11144222
BP,ioos:station:wmo:42369:3,2021-01-03T09:40:00Z,27.1991,-90.2806,450.1,66.4,11144222
BP,ioos:station:wmo:42369:3,2021-01-03T10:00:00Z,27.1991,-90.2807,449.7,66.4,11144222
BP,ioos:station:wmo:42369:3,2021-01-03T10:20:00Z,27.1991,-90.2808,449.0,66.4,11144222
BP,ioos:station:wmo:42369:3,2021-01-03T10:40:00Z,27.1991,-90.2809,449.2,66.4,11144222
BP,ioos:station:wmo:42369:3,2021-01-03T11:00:00Z,27.1991,-90.2811,449.5,66.4,11144222
BP,ioos:station:wmo:42369:3,2021-01-03T11:20:00Z,27.1991,-90.2811,449.1,66.4,11144222
BP,ioos:station:wmo:42369:3,2021-01-03T11:40:00Z,27.1990,-90.2811,450.1,66.4,11144222
BP,ioos:station:wmo:42369:3,2021-01-03T12:00:00Z,27.1990,-90.2812,449.7,66.4,11144222
BP,ioos:station:wmo:42369:3,2021-01-03T12:20:00Z,27.1991,-90.2815,449.3,66.4,11144222
BP,ioos:station:wmo:42369:3,2021-01-03T12:40:00Z,27.1991,-90.2816,448.8,66.4,11144222
BP,ioos:station:wmo:42369:3,2021-01-03T13:00:00Z,27.1991,-90.2817,449.4,66.4,11144222
BP,ioos:station:wmo:42369:3,2021-01-03T13:20:00Z,27.1991,-90.2819,448.5,66.4,11144222
BP,ioos:station:wmo:42369:3,2021-01-03T13:40:00Z,27.1990,-90.2821,449.3,66.4,11144222
BP,ioos:station:wmo:42369:3,2021-01-03T14:00:00Z,27.1991,-90.2821,449.2,66.4,11144222
BP,ioos:station:wmo:42369:3,2021-01-03T14:20:00Z,27.1991,-90.2821,449.8,66.4,11144222
BP,ioos:station:wmo:42369:3,2021-01-03T14:40:00Z,27.1991,-90.2821,448.8,66.4,11144222
BP,ioos:station:wmo:42369:3,2021-01-03T15:00:00Z,27.1991,-90.2822,449.7,66.4,11144222
BP,ioos:station:wmo:42369:3,2021-01-03T15:20:00Z,27.1991,-90.2821,448.6,66.4,11144222
BP,ioos:station:wmo:42369:3,2021-01-03T15:40:00Z,27.1990,-90.2820,449.1,66.4,11144222
BP,ioos:station:wmo:42369:3,2021-01-03T16:00:00Z,27.1991,-90.2819,449.1,66.4,11144222
BP,ioos:station:wmo:42369:3,2021-01-03T16:20:00Z,27.1992,-90.2819,449.4,66.4,11144222
BP,ioos:station:wmo:42369:3,2021-01-03T16:40:00Z,27.1992,-90.2818,450.2,66.4,11144222
BP,ioos:station:wmo:42369:3,2021-01-03T17:00:00Z,27.1991,-90.2817,449.3,66.4,11144222
BP,ioos:station:wmo:42369:3,2021-01-03T17:20:00Z,27.1991,-90.2817,448.5,66.4,11144222
BP,ioos:station:wmo:42369:3,2021-01-03T17:40:00Z,27.1992,-90.2816,449.8,66.4,11144222
BP,ioos:station:wmo:42369:3,2021-01-03T18:00:00Z,27.1992,-90.2816,449.0,66.4,11144222
BP,ioos:station:wmo:42369:3,2021-01-03T18:20:00Z,27.1992,-90.2816,449.0,66.4,11144222
BP,ioos:station:wmo:42369:3,2021-01-03T18:40:00Z,27.1992,-90.2816,448.4,66.4,11144222
BP,ioos:station:wmo:42369:3,2021-01-03T19:00:00Z,27.1992,-90.2816,449.1,66.4,11144222
BP,ioos:station:wmo:42369:3,2021-01-03T19:20:00Z,27.1992,-90.2815,448.9,66.4,11144222
BP,ioos:station:wmo:42369:3,2021-01-03T19:40:00Z,27.1992,-90.2816,449.8,66.4,11144222
BP,ioos:station:wmo:42369:3,2021-01-03T20:00:00Z,27.1992,-90.2817,449.7,66.4,11144222
BP,ioos:station:wmo:42369:3,2021-01-03T20:20:00Z,27.1993,-90.2820,449.0,66.4,11144222
BP,ioos:station:wmo:42369:3,2021-01-03T20:40:00Z,27.1993,-90.2823,449.2,66.4,11144222
BP,ioos:station:wmo:42369:3,2021-01-03T21:00:00Z,27.1993,-90.2826,449.5,66.4,11144222
BP,ioos:station:wmo:42369:3,2021-01-03T21:20:00Z,27.1993,-90.2830,448.9,66.4,11144222
BP,ioos:station:wmo:42369:3,2021-01-03T21:40:00Z,27.1994,-90.2832,449.0,66.4,11144222
BP,ioos:station:wmo:42369:3,2021-01-03T22:00:00Z,27.1995,-90.2834,449.4,66.4,11144222
BP,ioos:station:wmo:42369:3,2021-01-03T22:20:00Z,27.1996,-90.2835,449.3,66.4,11144222
BP,ioos:station:wmo:42369:3,2021-01-03T22:40:00Z,27.1996,-90.2836,449.6,66.4,11144222
BP,ioos:station:wmo:42369:3,2021-01-03T23:00:00Z,27.1997,-90.2834,448.1,66.4,11144222
BP,ioos:station:wmo:42369:3,2021-01-03T23:20:00Z,27.1998,-90.2832,449.1,66.4,11144222
BP,ioos:station:wmo:42369:3,2021-01-03T23:40:00Z,27.1999,-90.2829,449.3,66.4,11144222
BP,ioos:station:wmo:42369:3,2021-01-04T00:00:00Z,27.1992,-90.2819,448.7,66.4,11144222
BP,ioos:station:wmo:42369:3,2021-01-04T00:20:00Z,27.2003,-90.2823,449.1,66.4,11144222
BP,ioos:station:wmo:42369:3,2021-01-04T00:40:00Z,27.2004,-90.2818,448.4,66.4,11144222
BP,ioos:station:wmo:42369:3,2021-01-04T01:00:00Z,27.2004,-90.2811,448.8,66.5,11144222
BP,ioos:station:wmo:42369:3,2021-01-04T01:20:00Z,27.2006,-90.2805,448.8,66.4,11144222
BP,ioos:station:wmo:42369:3,2021-01-04T01:40:00Z,27.2008,-90.2798,448.9,66.5,11144222
BP,ioos:station:wmo:42369:3,2021-01-04T02:00:00Z,27.2010,-90.2791,448.8,66.4,11144222
BP,ioos:station:wmo:42369:3,2021-01-04T02:20:00Z,27.2013,-90.2786,447.9,66.5,11144222
BP,ioos:station:wmo:42369:3,2021-01-04T02:40:00Z,27.2015,-90.2781,448.3,66.5,11144222
BP,ioos:station:wmo:42369:3,2021-01-04T03:00:00Z,27.2017,-90.2778,448.5,66.5,11144222
BP,ioos:station:wmo:42369:3,2021-01-04T03:20:00Z,27.2018,-90.2774,449.8,66.5,11144222
BP,ioos:station:wmo:42369:3,2021-01-04T03:40:00Z,27.2020,-90.2772,450.0,66.5,11144222
BP,ioos:station:wmo:42369:3,2021-01-04T04:00:00Z,27.2020,-90.2770,449.3,66.5,11144222
BP,ioos:station:wmo:42369:3,2021-01-04T04:20:00Z,27.2021,-90.2769,448.8,66.5,11144222
BP,ioos:station:wmo:42369:3,2021-01-04T04:40:00Z,27.2020,-90.2769,449.2,66.5,11144222
BP,ioos:station:wmo:42369:3,2021-01-04T05:00:00Z,27.2019,-90.2769,447.8,66.5,11144222
BP,ioos:station:wmo:42369:3,2021-01-04T05:20:00Z,27.2018,-90.2770,448.9,66.5,11144222
BP,ioos:station:wmo:42369:3,2021-01-04T05:40:00Z,27.2018,-90.2771,448.3,66.5,11144222
BP,ioos:station:wmo:42369:3,2021-01-04T06:00:00Z,27.2017,-90.2772,448.5,66.5,11144222
BP,ioos:station:wmo:42369:3,2021-01-04T06:20:00Z,27.2017,-90.2772,449.0,66.5,11144222
BP,ioos:station:wmo:42369:3,2021-01-04T06:40:00Z,27.2016,-90.2773,448.9,66.5,11144222
BP,ioos:station:wmo:42369:3,2021-01-04T07:00:00Z,27.2014,-90.2775,448.6,66.4,11144222
BP,ioos:station:wmo:42369:3,2021-01-04T07:20:00Z,27.2014,-90.2775,449.4,66.5,11144222
BP,ioos:station:wmo:42369:3,2021-01-04T07:40:00Z,27.2013,-90.2777,448.9,66.5,11144222
BP,ioos:station:wmo:42369:3,2021-01-04T08:00:00Z,27.2013,-90.2777,449.3,66.5,11144222
BP,ioos:station:wmo:42369:3,2021-01-04T08:20:00Z,27.2012,-90.2778,448.9,66.5,11144222
BP,ioos:station:wmo:42369:3,2021-01-04T08:40:00Z,27.2012,-90.2778,450.0,66.4,11144222
BP,ioos:station:wmo:42369:3,2021-01-04T09:00:00Z,27.2012,-90.2778,448.9,66.5,11144222
BP,ioos:station:wmo:42369:3,2021-01-04T09:20:00Z,27.2013,-90.2777,448.1,66.5,11144222
BP,ioos:station:wmo:42369:3,2021-01-04T09:40:00Z,27.2013,-90.2776,449.0,66.5,11144222
BP,ioos:station:wmo:42369:3,2021-01-04T10:00:00Z,27.2015,-90.2775,448.9,66.5,11144222
BP,ioos:station:wmo:42369:3,2021-01-04T10:20:00Z,27.2016,-90.2774,448.5,66.5,11144222
BP,ioos:station:wmo:42369:3,2021-01-04T10:40:00Z,27.2016,-90.2774,448.9,66.5,11144222
BP,ioos:station:wmo:42369:3,2021-01-04T11:00:00Z,27.2017,-90.2773,449.3,66.5,11144222
BP,ioos:station:wmo:42369:3,2021-01-04T11:20:00Z,27.2016,-90.2772,448.7,66.5,11144222
BP,ioos:station:wmo:42369:3,2021-01-04T11:40:00Z,27.2017,-90.2772,448.8,66.5,11144222
BP,ioos:station:wmo:42369:3,2021-01-04T12:00:00Z,27.2017,-90.2772,448.6,66.5,11144222
BP,ioos:station:wmo:42369:3,2021-01-04T12:20:00Z,27.2017,-90.2772,448.9,66.5,11144222
BP,ioos:station:wmo:42369:3,2021-01-04T12:40:00Z,27.2017,-90.2773,448.3,66.5,11144222
BP,ioos:station:wmo:42369:3,2021-01-04T13:00:00Z,27.2016,-90.2774,448.9,66.5,11144222
BP,ioos:station:wmo:42369:3,2021-01-04T13:20:00Z,27.2016,-90.2774,448.7,66.5,11144222
BP,ioos:station:wmo:42369:3,2021-01-04T13:40:00Z,27.2016,-90.2776,449.0,66.5,11144222
BP,ioos:station:wmo:42369:3,2021-01-04T14:00:00Z,27.2014,-90.2777,449.1,66.5,11144222
BP,ioos:station:wmo:42369:3,2021-01-04T14:20:00Z,27.2013,-90.2778,449.6,66.5,11144222
BP,ioos:station:wmo:42369:3,2021-01-04T14:40:00Z,27.2013,-90.2778,449.3,66.4,11144222
BP,ioos:station:wmo:42369:3,2021-01-04T15:00:00Z,27.2014,-90.2777,448.9,66.4,11144222
BP,ioos:station:wmo:42369:3,2021-01-04T15:20:00Z,27.2015,-90.2776,449.7,66.4,11144222
BP,ioos:station:wmo:42369:3,2021-01-04T15:40:00Z,27.2017,-90.2776,448.8,66.4,11144222
BP,ioos:station:wmo:42369:3,2021-01-04T16:00:00Z,27.2018,-90.2775,448.1,66.4,11144222
BP,ioos:station:wmo:42369:3,2021-01-04T16:20:00Z,27.2021,-90.2774,449.2,66.4,11144222
BP,ioos:station:wmo:42369:3,2021-01-04T16:40:00Z,27.2022,-90.2773,448.3,66.4,11144222
BP,ioos:station:wmo:42369:3,2021-01-04T17:00:00Z,27.2025,-90.2771,448.4,66.4,11144222
BP,ioos:station:wmo:42369:3,2021-01-04T17:20:00Z,27.2026,-90.2769,448.2,66.4,11144222
BP,ioos:station:wmo:42369:3,2021-01-04T17:40:00Z,27.2028,-90.2768,449.1,66.5,11144222
BP,ioos:station:wmo:42369:3,2021-01-04T18:00:00Z,27.2030,-90.2767,448.0,66.4,11144222
BP,ioos:station:wmo:42369:3,2021-01-04T18:20:00Z,27.2032,-90.2766,448.8,66.5,11144222
BP,ioos:station:wmo:42369:3,2021-01-04T18:40:00Z,27.2035,-90.2765,449.3,66.5,11144222
BP,ioos:station:wmo:42369:3,2021-01-04T19:00:00Z,27.2037,-90.2763,447.8,66.5,11144222